Wetterdaten: Samstag, 28.05.2016
Datum Zeit Auen-Temp. Temp gefhlt Luftfeuchte Luftdruck Regen Wind Richtung Richtung Sonnenschein Taupunkt Windben
28.05.2016 00:00 13,3 C 13,0 C 81 % 1016,6 hPa 0,0 mm 0,0 km/h (0 Bft) S 180 0 min 10,1 C 0,0 km/h (0 Bft)
28.05.2016 00:05 13,3 C 13,0 C 81 % 1016,6 hPa 0,0 mm 0,0 km/h (0 Bft) SW 225 0 min 10,1 C 0,0 km/h (0 Bft)
28.05.2016 00:10 13,2 C 12,9 C 81 % 1016,4 hPa 0,0 mm 0,0 km/h (0 Bft) O-NO 67 0 min 10,0 C 0,0 km/h (0 Bft)
28.05.2016 00:13 13,1 C 12,9 C 82 % 1016,4 hPa 0,0 mm 0,0 km/h (0 Bft) SW 225 0 min 10,1 C 0,0 km/h (0 Bft)
28.05.2016 00:14 13,1 C 12,9 C 82 % 1016,4 hPa 0,0 mm 0,0 km/h (0 Bft) SW 225 0 min 10,1 C 0,0 km/h (0 Bft)
28.05.2016 00:15 13,1 C 12,9 C 82 % 1016,4 hPa 0,0 mm 0,0 km/h (0 Bft) SW 225 0 min 10,1 C 0,0 km/h (0 Bft)
28.05.2016 00:20 13,0 C 12,8 C 82 % 1016,4 hPa 0,0 mm 0,0 km/h (0 Bft) O-NO 67 0 min 10,0 C 0,0 km/h (0 Bft)
28.05.2016 00:25 13,1 C 12,9 C 82 % 1016,4 hPa 0,0 mm 0,3 km/h (0 Bft) W-SW 247 0 min 10,1 C 0,0 km/h (0 Bft)
28.05.2016 00:30 13,1 C 12,9 C 82 % 1016,6 hPa 0,0 mm 0,3 km/h (0 Bft) SO 135 0 min 10,1 C 0,0 km/h (0 Bft)
28.05.2016 00:35 13,2 C 13,0 C 82 % 1016,6 hPa 0,0 mm 0,0 km/h (0 Bft) SO 135 0 min 10,2 C 0,0 km/h (0 Bft)
28.05.2016 00:40 13,2 C 13,0 C 82 % 1016,6 hPa 0,0 mm 0,0 km/h (0 Bft) SO 135 0 min 10,2 C 0,0 km/h (0 Bft)
28.05.2016 00:45 13,2 C 13,0 C 82 % 1016,6 hPa 0,0 mm 0,0 km/h (0 Bft) SW 225 0 min 10,2 C 0,0 km/h (0 Bft)
28.05.2016 00:50 13,2 C 13,0 C 83 % 1016,7 hPa 0,0 mm 0,0 km/h (0 Bft) S 180 0 min 10,4 C 0,0 km/h (0 Bft)
28.05.2016 00:55 13,3 C 13,1 C 83 % 1016,7 hPa 0,0 mm 0,0 km/h (0 Bft) O-SO 112 0 min 10,5 C 0,0 km/h (0 Bft)
28.05.2016 01:00 13,3 C 13,1 C 84 % 1016,7 hPa 0,0 mm 0,0 km/h (0 Bft) SO 135 0 min 10,7 C 0,0 km/h (0 Bft)
28.05.2016 01:05 13,3 C 13,2 C 84 % 1016,7 hPa 0,0 mm 0,6 km/h (0 Bft) S-SW 202 0 min 10,7 C 8,0 km/h (2 Bft)
28.05.2016 01:10 13,3 C 13,2 C 84 % 1016,4 hPa 0,0 mm 1,8 km/h (1 Bft) NW 315 0 min 10,7 C 8,3 km/h (2 Bft)
28.05.2016 01:15 13,3 C 13,2 C 84 % 1016,4 hPa 0,0 mm 1,5 km/h (1 Bft) O-SO 112 0 min 10,7 C 0,0 km/h (0 Bft)
28.05.2016 01:20 13,3 C 13,2 C 84 % 1016,4 hPa 0,0 mm 0,0 km/h (0 Bft) S-SW 202 0 min 10,7 C 0,0 km/h (0 Bft)
28.05.2016 01:25 13,3 C 13,2 C 84 % 1016,4 hPa 0,0 mm 0,0 km/h (0 Bft) W-SW 247 0 min 10,7 C 0,0 km/h (0 Bft)
28.05.2016 01:30 13,4 C 13,2 C 84 % 1016,3 hPa 0,0 mm 0,0 km/h (0 Bft) O-SO 112 0 min 10,8 C 0,0 km/h (0 Bft)
28.05.2016 01:35 13,4 C 13,2 C 84 % 1016,3 hPa 0,7 mm 0,0 km/h (0 Bft) W-SW 247 0 min 10,8 C 0,0 km/h (0 Bft)
28.05.2016 01:40 13,4 C 13,3 C 84 % 1016,3 hPa 0,0 mm 1,8 km/h (1 Bft) W 270 0 min 10,8 C 12,5 km/h (3 Bft)
28.05.2016 01:45 13,4 C 13,3 C 84 % 1016,3 hPa 0,0 mm 2,1 km/h (1 Bft) S 180 0 min 10,8 C 0,0 km/h (0 Bft)
28.05.2016 01:50 13,5 C 13,3 C 85 % 1016,2 hPa 0,0 mm 1,2 km/h (1 Bft) S 180 0 min 11,0 C 0,0 km/h (0 Bft)
28.05.2016 01:55 13,5 C 13,3 C 85 % 1016,2 hPa 0,0 mm 0,0 km/h (0 Bft) W-SW 247 0 min 11,0 C 0,0 km/h (0 Bft)
28.05.2016 02:00 13,5 C 13,3 C 85 % 1016,2 hPa 0,0 mm 0,0 km/h (0 Bft) N 360 0 min 11,0 C 0,0 km/h (0 Bft)
28.05.2016 02:05 13,4 C 13,3 C 85 % 1016,2 hPa 0,0 mm 0,0 km/h (0 Bft) S-SW 202 0 min 10,9 C 0,0 km/h (0 Bft)
28.05.2016 02:10 13,4 C 13,3 C 85 % 1015,9 hPa 0,0 mm 0,0 km/h (0 Bft) NO 45 0 min 10,9 C 0,0 km/h (0 Bft)
28.05.2016 02:15 13,4 C 13,4 C 85 % 1015,9 hPa 0,0 mm 0,0 km/h (0 Bft) N-NO 22 0 min 10,9 C 0,0 km/h (0 Bft)
28.05.2016 02:20 13,4 C 13,4 C 85 % 1015,9 hPa 0,0 mm 0,0 km/h (0 Bft) N-NW 337 0 min 10,9 C 0,0 km/h (0 Bft)
28.05.2016 02:25 13,6 C 13,4 C 85 % 1015,9 hPa 0,0 mm 0,0 km/h (0 Bft) N-NO 22 0 min 11,1 C 0,0 km/h (0 Bft)
28.05.2016 02:30 13,6 C 13,5 C 85 % 1015,8 hPa 0,0 mm 0,0 km/h (0 Bft) N-NW 337 0 min 11,1 C 0,0 km/h (0 Bft)
28.05.2016 02:35 13,6 C 13,5 C 85 % 1015,8 hPa 0,0 mm 0,0 km/h (0 Bft) S-SO 157 0 min 11,1 C 0,0 km/h (0 Bft)
28.05.2016 02:40 13,7 C 13,5 C 85 % 1015,8 hPa 0,0 mm 0,0 km/h (0 Bft) O-NO 67 0 min 11,2 C 0,0 km/h (0 Bft)
28.05.2016 02:45 13,7 C 13,5 C 85 % 1015,8 hPa 0,0 mm 0,0 km/h (0 Bft) N-NO 22 0 min 11,2 C 0,0 km/h (0 Bft)
28.05.2016 02:50 13,7 C 13,5 C 85 % 1015,2 hPa 0,0 mm 0,0 km/h (0 Bft) W-SW 247 0 min 11,2 C 0,0 km/h (0 Bft)
28.05.2016 02:55 13,6 C 13,4 C 85 % 1015,2 hPa 0,0 mm 0,0 km/h (0 Bft) NO 45 0 min 11,1 C 0,0 km/h (0 Bft)
28.05.2016 03:00 13,5 C 13,3 C 85 % 1015,2 hPa 0,0 mm 0,0 km/h (0 Bft) O-NO 67 0 min 11,0 C 0,0 km/h (0 Bft)
28.05.2016 03:05 13,5 C 13,3 C 85 % 1015,2 hPa 0,0 mm 0,0 km/h (0 Bft) O-SO 112 0 min 11,0 C 0,0 km/h (0 Bft)
28.05.2016 03:10 13,3 C 13,1 C 85 % 1014,9 hPa 0,0 mm 0,0 km/h (0 Bft) N-NW 337 0 min 10,8 C 0,0 km/h (0 Bft)
28.05.2016 03:13 13,3 C 13,1 C 85 % 1014,9 hPa 0,0 mm 0,0 km/h (0 Bft) O-NO 67 0 min 10,8 C 0,0 km/h (0 Bft)
28.05.2016 03:15 13,3 C 13,1 C 85 % 1014,9 hPa 0,0 mm 0,0 km/h (0 Bft) O-NO 67 0 min 10,8 C 0,0 km/h (0 Bft)
28.05.2016 03:20 13,3 C 13,0 C 85 % 1014,9 hPa 0,0 mm 0,0 km/h (0 Bft) S 180 0 min 10,8 C 0,0 km/h (0 Bft)
28.05.2016 03:25 13,3 C 13,1 C 85 % 1014,9 hPa 0,0 mm 0,0 km/h (0 Bft) O-SO 112 0 min 10,8 C 0,0 km/h (0 Bft)
28.05.2016 03:30 13,3 C 13,1 C 85 % 1014,9 hPa 0,0 mm 0,0 km/h (0 Bft) NW 315 0 min 10,8 C 0,0 km/h (0 Bft)
28.05.2016 03:35 13,3 C 13,2 C 85 % 1014,9 hPa 0,0 mm 0,0 km/h (0 Bft) N-NO 22 0 min 10,8 C 0,0 km/h (0 Bft)
28.05.2016 03:40 13,3 C 13,1 C 85 % 1014,9 hPa 0,0 mm 0,0 km/h (0 Bft) O-SO 112 0 min 10,8 C 0,0 km/h (0 Bft)
28.05.2016 03:45 13,3 C 13,1 C 85 % 1014,9 hPa 0,0 mm 0,0 km/h (0 Bft) SO 135 0 min 10,8 C 0,0 km/h (0 Bft)
28.05.2016 03:50 13,2 C 13,0 C 85 % 1014,7 hPa 0,0 mm 0,0 km/h (0 Bft) O-SO 112 0 min 10,7 C 0,0 km/h (0 Bft)
28.05.2016 03:55 13,2 C 13,0 C 85 % 1014,7 hPa 0,0 mm 0,0 km/h (0 Bft) N-NW 337 0 min 10,7 C 0,0 km/h (0 Bft)
28.05.2016 04:00 13,1 C 12,9 C 85 % 1014,7 hPa 0,0 mm 0,0 km/h (0 Bft) O-NO 67 0 min 10,6 C 0,0 km/h (0 Bft)
28.05.2016 04:05 13,0 C 12,9 C 85 % 1014,7 hPa 0,0 mm 0,0 km/h (0 Bft) N 360 0 min 10,5 C 0,0 km/h (0 Bft)
28.05.2016 04:10 13,0 C 12,8 C 85 % 1014,7 hPa 0,0 mm 0,0 km/h (0 Bft) SO 135 0 min 10,5 C 0,0 km/h (0 Bft)
28.05.2016 04:15 13,0 C 12,8 C 85 % 1014,7 hPa 0,0 mm 0,0 km/h (0 Bft) NW 315 0 min 10,5 C 0,0 km/h (0 Bft)
28.05.2016 04:20 13,0 C 12,8 C 85 % 1014,7 hPa 0,0 mm 0,0 km/h (0 Bft) SW 225 0 min 10,5 C 0,0 km/h (0 Bft)
28.05.2016 04:25 13,1 C 12,9 C 85 % 1014,7 hPa 0,0 mm 0,0 km/h (0 Bft) O-NO 67 0 min 10,6 C 0,0 km/h (0 Bft)
28.05.2016 04:30 13,1 C 12,8 C 85 % 1014,7 hPa 0,0 mm 0,0 km/h (0 Bft) W-SW 247 0 min 10,6 C 0,0 km/h (0 Bft)
28.05.2016 04:35 13,0 C 12,7 C 85 % 1014,7 hPa 0,0 mm 0,0 km/h (0 Bft) W 270 0 min 10,5 C 0,0 km/h (0 Bft)
28.05.2016 04:40 13,0 C 12,8 C 85 % 1014,7 hPa 0,0 mm 1,5 km/h (1 Bft) W-SW 247 0 min 10,5 C 14,9 km/h (3 Bft)
28.05.2016 04:45 13,1 C 13,0 C 86 % 1014,7 hPa 0,0 mm 5,1 km/h (1 Bft) O-SO 112 0 min 10,8 C 10,1 km/h (2 Bft)
28.05.2016 04:50 13,1 C 12,9 C 86 % 1014,9 hPa 0,0 mm 6,3 km/h (2 Bft) W-SW 247 0 min 10,8 C 0,0 km/h (0 Bft)
28.05.2016 04:55 13,0 C 12,8 C 86 % 1014,9 hPa 0,0 mm 2,7 km/h (1 Bft) SO 135 0 min 10,7 C 0,0 km/h (0 Bft)
28.05.2016 05:00 13,0 C 12,8 C 86 % 1014,9 hPa 0,0 mm 0,0 km/h (0 Bft) SO 135 0 min 10,7 C 0,0 km/h (0 Bft)
28.05.2016 05:05 13,0 C 12,8 C 86 % 1014,9 hPa 0,0 mm 0,0 km/h (0 Bft) S-SW 202 0 min 10,7 C 4,2 km/h (1 Bft)
28.05.2016 05:10 13,0 C 12,9 C 86 % 1015,0 hPa 0,0 mm 0,3 km/h (0 Bft) O-SO 112 0 min 10,7 C 0,0 km/h (0 Bft)
28.05.2016 05:15 13,0 C 12,8 C 86 % 1015,0 hPa 0,0 mm 0,3 km/h (0 Bft) O-NO 67 0 min 10,7 C 0,0 km/h (0 Bft)
28.05.2016 05:20 13,0 C 12,7 C 86 % 1015,0 hPa 0,0 mm 0,0 km/h (0 Bft) W-SW 247 0 min 10,7 C 0,0 km/h (0 Bft)
28.05.2016 05:25 12,9 C 12,7 C 86 % 1015,0 hPa 0,0 mm 0,0 km/h (0 Bft) O-NO 67 0 min 10,6 C 0,0 km/h (0 Bft)
28.05.2016 05:30 12,8 C 12,6 C 86 % 1014,8 hPa 0,0 mm 0,0 km/h (0 Bft) NW 315 0 min 10,5 C 0,0 km/h (0 Bft)
28.05.2016 05:35 12,8 C 12,6 C 86 % 1014,8 hPa 0,0 mm 0,0 km/h (0 Bft) W 270 0 min 10,5 C 0,0 km/h (0 Bft)
28.05.2016 05:40 12,8 C 12,6 C 86 % 1014,8 hPa 0,0 mm 0,0 km/h (0 Bft) S-SW 202 0 min 10,5 C 0,0 km/h (0 Bft)
28.05.2016 05:45 12,8 C 12,6 C 86 % 1014,8 hPa 0,0 mm 1,8 km/h (1 Bft) O-SO 112 0 min 10,5 C 0,0 km/h (0 Bft)
28.05.2016 05:50 12,9 C 12,8 C 86 % 1015,0 hPa 0,0 mm 3,3 km/h (1 Bft) NO 45 0 min 10,6 C 0,0 km/h (0 Bft)
28.05.2016 05:55 12,9 C 12,8 C 86 % 1015,0 hPa 0,0 mm 2,1 km/h (1 Bft) W-NW 292 0 min 10,6 C 0,0 km/h (0 Bft)
28.05.2016 06:00 12,9 C 12,8 C 86 % 1015,0 hPa 0,0 mm 2,1 km/h (1 Bft) SW 225 0 min 10,6 C 0,0 km/h (0 Bft)
28.05.2016 06:05 12,9 C 12,8 C 86 % 1015,0 hPa 0,0 mm 3,3 km/h (1 Bft) S-SW 202 0 min 10,6 C 9,2 km/h (2 Bft)
28.05.2016 06:10 13,1 C 13,1 C 85 % 1015,9 hPa 0,0 mm 5,7 km/h (1 Bft) S 180 0 min 10,6 C 0,0 km/h (0 Bft)
28.05.2016 06:13 13,3 C 13,2 C 85 % 1015,9 hPa 0,0 mm 6,3 km/h (2 Bft) W-SW 247 0 min 10,8 C 7,5 km/h (2 Bft)
28.05.2016 06:16 13,3 C 13,2 C 85 % 1015,9 hPa 0,0 mm 6,3 km/h (2 Bft) W-SW 247 0 min 10,8 C 7,5 km/h (2 Bft)
28.05.2016 06:20 13,5 C 13,2 C 85 % 1015,9 hPa 0,0 mm 6,9 km/h (2 Bft) W 270 0 min 11,0 C 31,0 km/h (5 Bft)
28.05.2016 06:25 13,5 C 13,1 C 85 % 1015,9 hPa 0,7 mm 6,9 km/h (2 Bft) W-SW 247 0 min 11,0 C 6,6 km/h (2 Bft)
28.05.2016 06:30 13,5 C 13,2 C 85 % 1016,0 hPa 0,0 mm 5,7 km/h (1 Bft) S 180 0 min 11,0 C 7,5 km/h (2 Bft)
28.05.2016 06:35 13,6 C 13,2 C 85 % 1016,0 hPa 0,0 mm 5,1 km/h (1 Bft) S-SO 157 0 min 11,1 C 8,0 km/h (2 Bft)
28.05.2016 06:40 13,7 C 13,3 C 85 % 1016,0 hPa 0,0 mm 6,6 km/h (2 Bft) S 180 0 min 11,2 C 10,7 km/h (2 Bft)
28.05.2016 06:45 13,7 C 13,3 C 85 % 1016,0 hPa 0,0 mm 8,3 km/h (2 Bft) SW 225 0 min 11,2 C 7,7 km/h (2 Bft)
28.05.2016 06:50 13,8 C 13,3 C 84 % 1016,2 hPa 0,0 mm 8,0 km/h (2 Bft) S 180 0 min 11,1 C 15,8 km/h (3 Bft)
28.05.2016 06:55 13,9 C 13,4 C 83 % 1016,2 hPa 0,0 mm 8,3 km/h (2 Bft) S-SO 157 0 min 11,1 C 17,9 km/h (3 Bft)
28.05.2016 07:00 13,8 C 13,3 C 83 % 1016,2 hPa 0,0 mm 11,9 km/h (2 Bft) S 180 0 min 11,0 C 22,1 km/h (4 Bft)
28.05.2016 07:05 13,8 C 13,3 C 82 % 1016,2 hPa 0,0 mm 12,8 km/h (3 Bft) SW 225 0 min 10,8 C 10,7 km/h (2 Bft)
28.05.2016 07:10 13,6 C 13,1 C 82 % 1016,3 hPa 0,0 mm 6,9 km/h (2 Bft) O-NO 67 0 min 10,6 C 0,0 km/h (0 Bft)
28.05.2016 07:15 13,4 C 12,9 C 82 % 1016,3 hPa 0,7 mm 1,5 km/h (1 Bft) O 90 0 min 10,4 C 0,0 km/h (0 Bft)
28.05.2016 07:20 13,3 C 12,9 C 83 % 1016,3 hPa 0,0 mm 0,6 km/h (0 Bft) S 180 0 min 10,5 C 8,9 km/h (2 Bft)
28.05.2016 07:25 13,2 C 13,0 C 83 % 1016,3 hPa 0,0 mm 0,9 km/h (0 Bft) N-NO 22 0 min 10,4 C 0,0 km/h (0 Bft)
28.05.2016 07:30 13,2 C 13,0 C 83 % 1016,6 hPa 0,7 mm 0,9 km/h (0 Bft) O-NO 67 0 min 10,4 C 7,2 km/h (2 Bft)
28.05.2016 07:35 13,2 C 13,0 C 84 % 1016,6 hPa 0,0 mm 0,9 km/h (0 Bft) N-NO 22 0 min 10,6 C 0,0 km/h (0 Bft)
28.05.2016 07:40 13,1 C 13,0 C 84 % 1016,6 hPa 0,0 mm 0,9 km/h (0 Bft) NO 45 0 min 10,5 C 0,0 km/h (0 Bft)
28.05.2016 07:45 13,1 C 12,9 C 84 % 1016,6 hPa 0,0 mm 0,0 km/h (0 Bft) NO 45 0 min 10,5 C 0,0 km/h (0 Bft)
28.05.2016 07:50 13,1 C 12,9 C 84 % 1016,3 hPa 0,0 mm 0,0 km/h (0 Bft) O-NO 67 0 min 10,5 C 0,0 km/h (0 Bft)
28.05.2016 07:55 13,1 C 12,9 C 84 % 1016,3 hPa 0,0 mm 0,0 km/h (0 Bft) O-NO 67 0 min 10,5 C 0,0 km/h (0 Bft)
28.05.2016 08:00 13,0 C 12,9 C 85 % 1016,3 hPa 0,0 mm 0,0 km/h (0 Bft) N-NW 337 0 min 10,5 C 0,0 km/h (0 Bft)
28.05.2016 08:05 13,0 C 13,0 C 85 % 1016,3 hPa 0,0 mm 0,0 km/h (0 Bft) O-NO 67 0 min 10,5 C 0,0 km/h (0 Bft)
28.05.2016 08:10 13,1 C 13,1 C 85 % 1015,7 hPa 0,0 mm 0,0 km/h (0 Bft) NW 315 0 min 10,6 C 0,0 km/h (0 Bft)
28.05.2016 08:15 13,2 C 13,2 C 85 % 1015,7 hPa 0,7 mm 0,0 km/h (0 Bft) S-SW 202 0 min 10,7 C 0,0 km/h (0 Bft)
28.05.2016 08:20 13,4 C 13,4 C 85 % 1015,7 hPa 0,0 mm 0,6 km/h (0 Bft) W 270 0 min 10,9 C 0,0 km/h (0 Bft)
28.05.2016 08:25 13,4 C 13,4 C 85 % 1015,7 hPa 0,0 mm 0,6 km/h (0 Bft) O-SO 112 0 min 10,9 C 0,0 km/h (0 Bft)
28.05.2016 08:30 13,4 C 13,4 C 85 % 1015,6 hPa 0,0 mm 0,6 km/h (0 Bft) W 270 0 min 10,9 C 0,0 km/h (0 Bft)
28.05.2016 08:35 13,5 C 13,6 C 85 % 1015,6 hPa 0,0 mm 0,6 km/h (0 Bft) S 180 0 min 11,0 C 4,2 km/h (1 Bft)
28.05.2016 08:40 13,7 C 13,8 C 86 % 1015,6 hPa 0,0 mm 0,6 km/h (0 Bft) SO 135 0 min 11,4 C 0,0 km/h (0 Bft)
28.05.2016 08:45 13,8 C 14,1 C 86 % 1015,6 hPa 0,0 mm 0,6 km/h (0 Bft) O-NO 67 0 min 11,5 C 0,0 km/h (0 Bft)
28.05.2016 08:50 14,2 C 14,6 C 86 % 1015,2 hPa 0,0 mm 0,0 km/h (0 Bft) NO 45 0 min 11,9 C 0,0 km/h (0 Bft)
28.05.2016 08:55 14,5 C 15,0 C 86 % 1015,2 hPa 0,0 mm 0,0 km/h (0 Bft) O-NO 67 0 min 12,2 C 0,0 km/h (0 Bft)
28.05.2016 09:00 14,6 C 15,3 C 86 % 1015,2 hPa 0,0 mm 0,0 km/h (0 Bft) N 360 0 min 12,3 C 0,0 km/h (0 Bft)
28.05.2016 09:05 14,5 C 15,3 C 86 % 1015,2 hPa 0,0 mm 0,0 km/h (0 Bft) O 90 0 min 12,2 C 0,0 km/h (0 Bft)
28.05.2016 09:10 15,5 C 16,8 C 85 % 1015,0 hPa 0,0 mm 0,6 km/h (0 Bft) N-NW 337 0 min 13,0 C 0,0 km/h (0 Bft)
28.05.2016 09:15 16,3 C 19,0 C 84 % 1015,0 hPa 0,0 mm 0,6 km/h (0 Bft) NW 315 0 min 13,6 C 0,0 km/h (0 Bft)
28.05.2016 09:17 16,3 C 19,0 C 84 % 1015,0 hPa 0,0 mm 0,6 km/h (0 Bft) NW 315 0 min 13,6 C 0,0 km/h (0 Bft)
28.05.2016 09:20 17,9 C 22,8 C 83 % 1015,0 hPa 0,0 mm 0,0 km/h (0 Bft) O-SO 112 3 min 15,0 C 0,0 km/h (0 Bft)
28.05.2016 09:25 18,3 C 24,9 C 82 % 1015,0 hPa 0,0 mm 0,3 km/h (0 Bft) O-SO 112 5 min 15,2 C 3,6 km/h (1 Bft)
28.05.2016 09:30 18,8 C 26,2 C 79 % 1014,6 hPa 0,0 mm 0,3 km/h (0 Bft) O-NO 67 5 min 15,1 C 0,0 km/h (0 Bft)
28.05.2016 09:35 19,0 C 26,8 C 77 % 1014,6 hPa 0,0 mm 0,3 km/h (0 Bft) N-NO 22 5 min 14,9 C 0,0 km/h (0 Bft)
28.05.2016 09:40 19,3 C 27,2 C 75 % 1014,6 hPa 0,0 mm 0,0 km/h (0 Bft) W-SW 247 5 min 14,8 C 0,0 km/h (0 Bft)
28.05.2016 09:45 19,7 C 27,6 C 74 % 1014,6 hPa 0,0 mm 0,0 km/h (0 Bft) O-SO 112 5 min 14,9 C 0,0 km/h (0 Bft)
28.05.2016 09:50 19,8 C 28,3 C 73 % 1015,1 hPa 0,0 mm 0,3 km/h (0 Bft) O-NO 67 5 min 14,8 C 0,0 km/h (0 Bft)
28.05.2016 09:55 19,9 C 28,6 C 72 % 1015,1 hPa 0,0 mm 0,3 km/h (0 Bft) NO 45 5 min 14,7 C 0,0 km/h (0 Bft)
28.05.2016 10:00 20,4 C 28,4 C 69 % 1015,1 hPa 0,0 mm 0,6 km/h (0 Bft) S-SW 202 5 min 14,5 C 0,0 km/h (0 Bft)
28.05.2016 10:05 20,4 C 28,7 C 69 % 1015,1 hPa 0,0 mm 0,6 km/h (0 Bft) O-NO 67 5 min 14,5 C 0,0 km/h (0 Bft)
28.05.2016 10:10 20,9 C 29,0 C 68 % 1015,6 hPa 0,0 mm 1,2 km/h (1 Bft) NO 45 5 min 14,8 C 8,6 km/h (2 Bft)
28.05.2016 10:15 21,0 C 28,5 C 67 % 1015,6 hPa 0,0 mm 2,4 km/h (1 Bft) SO 135 5 min 14,6 C 0,0 km/h (0 Bft)
28.05.2016 10:20 21,2 C 28,7 C 62 % 1015,6 hPa 0,0 mm 3,0 km/h (1 Bft) NO 45 5 min 13,6 C 0,0 km/h (0 Bft)
28.05.2016 10:25 21,3 C 28,6 C 61 % 1015,6 hPa 0,0 mm 2,1 km/h (1 Bft) O 90 5 min 13,5 C 5,7 km/h (1 Bft)
28.05.2016 10:30 21,5 C 28,0 C 61 % 1015,9 hPa 0,0 mm 3,3 km/h (1 Bft) N-NO 22 5 min 13,7 C 0,0 km/h (0 Bft)
28.05.2016 10:35 21,5 C 28,4 C 63 % 1015,9 hPa 0,0 mm 2,7 km/h (1 Bft) N-NO 22 5 min 14,2 C 0,0 km/h (0 Bft)
28.05.2016 10:40 21,9 C 29,1 C 59 % 1015,9 hPa 0,0 mm 0,9 km/h (0 Bft) N-NO 22 5 min 13,5 C 0,0 km/h (0 Bft)
28.05.2016 10:45 22,0 C 29,0 C 58 % 1015,9 hPa 0,0 mm 2,4 km/h (1 Bft) N-NO 22 5 min 13,3 C 3,9 km/h (1 Bft)
28.05.2016 10:50 22,1 C 29,1 C 58 % 1016,7 hPa 0,0 mm 4,8 km/h (1 Bft) N-NO 22 5 min 13,4 C 8,0 km/h (2 Bft)
28.05.2016 10:55 22,2 C 28,9 C 59 % 1016,7 hPa 0,0 mm 3,9 km/h (1 Bft) N-NO 22 5 min 13,8 C 0,0 km/h (0 Bft)
28.05.2016 11:00 22,3 C 28,3 C 58 % 1016,7 hPa 0,0 mm 3,6 km/h (1 Bft) NO 45 5 min 13,6 C 5,7 km/h (1 Bft)
28.05.2016 11:05 22,5 C 28,5 C 56 % 1016,7 hPa 0,0 mm 5,1 km/h (1 Bft) O-NO 67 5 min 13,3 C 7,7 km/h (2 Bft)
28.05.2016 11:10 22,9 C 28,7 C 57 % 1016,1 hPa 0,0 mm 5,1 km/h (1 Bft) N-NO 22 5 min 13,9 C 9,2 km/h (2 Bft)
28.05.2016 11:15 22,8 C 28,7 C 56 % 1016,1 hPa 0,0 mm 5,4 km/h (1 Bft) N-NW 337 5 min 13,6 C 8,6 km/h (2 Bft)
28.05.2016 11:20 22,9 C 28,4 C 52 % 1016,1 hPa 0,0 mm 8,6 km/h (2 Bft) N 360 5 min 12,5 C 13,1 km/h (3 Bft)
28.05.2016 11:25 23,1 C 28,2 C 52 % 1016,1 hPa 0,0 mm 7,7 km/h (2 Bft) N-NO 22 5 min 12,7 C 4,2 km/h (1 Bft)
28.05.2016 11:30 23,5 C 28,7 C 55 % 1016,4 hPa 0,0 mm 6,6 km/h (2 Bft) O-NO 67 5 min 13,9 C 11,6 km/h (2 Bft)
28.05.2016 11:35 23,3 C 28,7 C 53 % 1016,4 hPa 0,0 mm 5,7 km/h (1 Bft) NO 45 5 min 13,2 C 5,7 km/h (1 Bft)
28.05.2016 11:40 23,7 C 29,3 C 53 % 1016,4 hPa 0,0 mm 4,5 km/h (1 Bft) NW 315 5 min 13,5 C 7,7 km/h (2 Bft)
28.05.2016 11:45 23,5 C 29,2 C 53 % 1016,4 hPa 0,0 mm 4,8 km/h (1 Bft) O-NO 67 5 min 13,4 C 7,2 km/h (2 Bft)
28.05.2016 11:50 23,6 C 28,9 C 52 % 1016,4 hPa 0,0 mm 7,7 km/h (2 Bft) N-NW 337 5 min 13,2 C 4,2 km/h (1 Bft)
28.05.2016 11:55 23,8 C 28,9 C 52 % 1016,4 hPa 0,0 mm 7,2 km/h (2 Bft) O-NO 67 5 min 13,3 C 8,6 km/h (2 Bft)
28.05.2016 12:00 23,9 C 29,1 C 53 % 1016,4 hPa 0,0 mm 6,3 km/h (2 Bft) NO 45 5 min 13,7 C 8,9 km/h (2 Bft)
28.05.2016 12:05 24,0 C 29,4 C 53 % 1016,4 hPa 0,0 mm 5,7 km/h (1 Bft) NO 45 5 min 13,8 C 9,2 km/h (2 Bft)
28.05.2016 12:10 23,7 C 28,7 C 55 % 1016,2 hPa 0,0 mm 6,0 km/h (2 Bft) O 90 5 min 14,1 C 8,3 km/h (2 Bft)
28.05.2016 12:15 23,7 C 28,4 C 52 % 1016,2 hPa 0,0 mm 6,9 km/h (2 Bft) NO 45 5 min 13,2 C 11,3 km/h (2 Bft)
28.05.2016 12:18 22,9 C 26,9 C 55 % 1016,2 hPa 0,0 mm 7,2 km/h (2 Bft) N-NO 22 3 min 13,4 C 9,2 km/h (2 Bft)
28.05.2016 12:20 22,9 C 26,9 C 55 % 1016,2 hPa 0,0 mm 7,2 km/h (2 Bft) N-NO 22 2 min 13,4 C 9,2 km/h (2 Bft)
28.05.2016 12:25 22,5 C 25,6 C 54 % 1016,2 hPa 0,0 mm 6,9 km/h (2 Bft) N-NO 22 5 min 12,7 C 3,9 km/h (1 Bft)
28.05.2016 12:30 21,8 C 24,4 C 56 % 1016,1 hPa 0,0 mm 4,2 km/h (1 Bft) NO 45 0 min 12,6 C 0,0 km/h (0 Bft)
28.05.2016 12:35 21,9 C 24,4 C 56 % 1016,1 hPa 0,0 mm 1,5 km/h (1 Bft) NO 45 0 min 12,7 C 0,0 km/h (0 Bft)
28.05.2016 12:40 21,9 C 24,6 C 57 % 1016,1 hPa 0,0 mm 2,1 km/h (1 Bft) NO 45 5 min 13,0 C 7,5 km/h (2 Bft)
28.05.2016 12:45 21,6 C 24,0 C 58 % 1016,1 hPa 0,0 mm 3,0 km/h (1 Bft) W-NW 292 0 min 13,0 C 0,0 km/h (0 Bft)
28.05.2016 12:50 21,5 C 23,2 C 58 % 1015,9 hPa 0,0 mm 6,3 km/h (2 Bft) NO 45 0 min 12,9 C 9,8 km/h (2 Bft)
28.05.2016 12:55 21,3 C 22,8 C 58 % 1015,9 hPa 0,0 mm 8,3 km/h (2 Bft) N 360 0 min 12,7 C 9,8 km/h (2 Bft)
28.05.2016 13:00 21,2 C 22,5 C 62 % 1015,9 hPa 0,0 mm 9,5 km/h (2 Bft) N-NO 22 0 min 13,6 C 13,7 km/h (3 Bft)
28.05.2016 13:05 21,3 C 22,8 C 63 % 1015,9 hPa 0,0 mm 9,5 km/h (2 Bft) SO 135 0 min 14,0 C 12,2 km/h (2 Bft)
28.05.2016 13:10 21,4 C 23,8 C 64 % 1015,4 hPa 0,0 mm 8,6 km/h (2 Bft) N 360 0 min 14,3 C 15,2 km/h (3 Bft)
28.05.2016 13:15 21,3 C 23,6 C 64 % 1015,4 hPa 0,0 mm 8,0 km/h (2 Bft) N-NO 22 5 min 14,2 C 9,2 km/h (2 Bft)
28.05.2016 13:20 21,1 C 23,2 C 65 % 1015,4 hPa 0,0 mm 8,9 km/h (2 Bft) N-NO 22 0 min 14,3 C 14,9 km/h (3 Bft)
28.05.2016 13:25 21,0 C 23,0 C 64 % 1015,4 hPa 0,0 mm 8,6 km/h (2 Bft) N-NW 337 0 min 13,9 C 11,9 km/h (2 Bft)
28.05.2016 13:30 21,1 C 23,0 C 63 % 1015,3 hPa 0,0 mm 8,6 km/h (2 Bft) N-NO 22 0 min 13,8 C 8,0 km/h (2 Bft)
28.05.2016 13:35 21,0 C 22,9 C 63 % 1015,3 hPa 0,0 mm 8,6 km/h (2 Bft) NO 45 0 min 13,7 C 14,9 km/h (3 Bft)
28.05.2016 13:40 20,6 C 22,3 C 63 % 1015,3 hPa 0,0 mm 10,4 km/h (2 Bft) N-NO 22 0 min 13,3 C 11,3 km/h (2 Bft)
28.05.2016 13:45 20,4 C 22,0 C 63 % 1015,3 hPa 0,0 mm 9,8 km/h (2 Bft) NW 315 0 min 13,1 C 9,2 km/h (2 Bft)
28.05.2016 13:50 20,3 C 21,6 C 63 % 1015,2 hPa 0,0 mm 8,3 km/h (2 Bft) NO 45 0 min 13,0 C 14,6 km/h (3 Bft)
28.05.2016 13:55 20,1 C 20,3 C 62 % 1015,2 hPa 0,0 mm 9,8 km/h (2 Bft) N-NO 22 0 min 12,6 C 17,0 km/h (3 Bft)
28.05.2016 14:00 19,2 C 18,5 C 65 % 1015,2 hPa 0,0 mm 9,2 km/h (2 Bft) O-SO 112 0 min 12,5 C 3,9 km/h (1 Bft)
28.05.2016 14:05 18,7 C 18,3 C 67 % 1015,2 hPa 0,0 mm 5,7 km/h (1 Bft) NO 45 0 min 12,4 C 0,0 km/h (0 Bft)
28.05.2016 14:10 18,6 C 18,3 C 70 % 1014,7 hPa 0,0 mm 1,8 km/h (1 Bft) S-SO 157 0 min 13,0 C 0,0 km/h (0 Bft)
28.05.2016 14:15 18,4 C 18,1 C 70 % 1014,7 hPa 0,7 mm 0,9 km/h (0 Bft) S 180 0 min 12,8 C 0,0 km/h (0 Bft)
28.05.2016 14:20 19,4 C 20,1 C 72 % 1014,7 hPa 0,0 mm 0,3 km/h (0 Bft) N-NO 22 0 min 14,2 C 0,0 km/h (0 Bft)
28.05.2016 14:25 20,1 C 21,2 C 72 % 1014,7 hPa 0,0 mm 0,6 km/h (0 Bft) O 90 0 min 14,9 C 7,2 km/h (2 Bft)
28.05.2016 14:30 20,0 C 22,0 C 70 % 1014,4 hPa 0,0 mm 0,9 km/h (0 Bft) N-NW 337 0 min 14,4 C 0,0 km/h (0 Bft)
28.05.2016 14:35 19,8 C 21,3 C 69 % 1014,4 hPa 0,0 mm 1,5 km/h (1 Bft) O-NO 67 0 min 13,9 C 0,0 km/h (0 Bft)
28.05.2016 14:40 20,1 C 21,8 C 70 % 1014,4 hPa 0,0 mm 0,9 km/h (0 Bft) N-NO 22 0 min 14,5 C 4,2 km/h (1 Bft)
28.05.2016 14:45 20,9 C 23,7 C 70 % 1014,4 hPa 0,0 mm 0,9 km/h (0 Bft) N-NO 22 0 min 15,2 C 4,5 km/h (1 Bft)
28.05.2016 14:50 21,2 C 25,2 C 66 % 1014,1 hPa 0,0 mm 3,3 km/h (1 Bft) O-NO 67 5 min 14,6 C 8,9 km/h (2 Bft)
28.05.2016 14:55 21,2 C 25,7 C 64 % 1014,1 hPa 0,0 mm 7,2 km/h (2 Bft) NO 45 5 min 14,1 C 11,6 km/h (2 Bft)
28.05.2016 15:00 21,4 C 26,4 C 61 % 1014,1 hPa 0,0 mm 8,9 km/h (2 Bft) N-NO 22 5 min 13,6 C 16,1 km/h (3 Bft)
28.05.2016 15:05 21,5 C 26,8 C 61 % 1014,1 hPa 0,0 mm 8,6 km/h (2 Bft) N 360 5 min 13,7 C 4,2 km/h (1 Bft)
28.05.2016 15:10 21,3 C 26,0 C 62 % 1014,1 hPa 0,0 mm 9,2 km/h (2 Bft) NO 45 5 min 13,7 C 11,6 km/h (2 Bft)
28.05.2016 15:15 20,9 C 25,3 C 63 % 1014,1 hPa 0,0 mm 7,5 km/h (2 Bft) O-NO 67 5 min 13,6 C 8,3 km/h (2 Bft)
28.05.2016 15:18 20,6 C 23,6 C 63 % 1014,1 hPa 0,0 mm 8,3 km/h (2 Bft) N-NO 22 3 min 13,3 C 7,5 km/h (2 Bft)
28.05.2016 15:19 20,6 C 23,6 C 63 % 1014,1 hPa 0,0 mm 8,3 km/h (2 Bft) N-NO 22 1 min 13,3 C 7,5 km/h (2 Bft)
28.05.2016 15:20 20,6 C 23,6 C 63 % 1014,1 hPa 0,0 mm 8,3 km/h (2 Bft) N-NO 22 1 min 13,3 C 7,5 km/h (2 Bft)
28.05.2016 15:25 20,5 C 23,2 C 65 % 1014,1 hPa 0,0 mm 7,5 km/h (2 Bft) O-NO 67 5 min 13,7 C 8,3 km/h (2 Bft)
28.05.2016 15:30 20,6 C 23,3 C 66 % 1014,2 hPa 0,0 mm 4,8 km/h (1 Bft) N-NO 22 5 min 14,0 C 10,1 km/h (2 Bft)
28.05.2016 15:35 20,8 C 23,3 C 65 % 1014,2 hPa 0,0 mm 6,3 km/h (2 Bft) N-NO 22 0 min 14,0 C 20,6 km/h (4 Bft)
28.05.2016 15:40 20,8 C 23,6 C 65 % 1014,2 hPa 0,0 mm 8,0 km/h (2 Bft) O-NO 67 5 min 14,0 C 16,4 km/h (3 Bft)
28.05.2016 15:45 20,6 C 23,0 C 63 % 1014,2 hPa 0,0 mm 10,1 km/h (2 Bft) N-NW 337 5 min 13,3 C 21,5 km/h (4 Bft)
28.05.2016 15:50 19,6 C 21,6 C 63 % 1014,5 hPa 0,0 mm 15,5 km/h (3 Bft) NW 315 5 min 12,4 C 25,9 km/h (4 Bft)
28.05.2016 15:55 19,0 C 20,3 C 64 % 1014,5 hPa 0,0 mm 15,2 km/h (3 Bft) NW 315 0 min 12,0 C 14,3 km/h (3 Bft)
28.05.2016 16:00 18,3 C 19,1 C 65 % 1014,5 hPa 0,0 mm 12,2 km/h (2 Bft) W 270 0 min 11,6 C 15,2 km/h (3 Bft)
28.05.2016 16:05 17,9 C 18,5 C 66 % 1014,5 hPa 0,0 mm 12,2 km/h (2 Bft) W 270 0 min 11,5 C 11,9 km/h (2 Bft)
28.05.2016 16:10 17,6 C 17,7 C 67 % 1014,6 hPa 0,0 mm 11,6 km/h (2 Bft) W 270 0 min 11,4 C 11,6 km/h (2 Bft)
28.05.2016 16:15 17,2 C 17,3 C 67 % 1014,6 hPa 0,0 mm 10,1 km/h (2 Bft) SW 225 0 min 11,0 C 7,5 km/h (2 Bft)
28.05.2016 16:20 17,0 C 17,0 C 69 % 1014,6 hPa 0,0 mm 6,3 km/h (2 Bft) O-SO 112 0 min 11,3 C 7,2 km/h (2 Bft)
28.05.2016 16:25 16,8 C 17,0 C 70 % 1014,6 hPa 0,0 mm 4,5 km/h (1 Bft) O-SO 112 0 min 11,3 C 11,3 km/h (2 Bft)
28.05.2016 16:30 16,9 C 17,5 C 71 % 1014,3 hPa 0,0 mm 6,3 km/h (2 Bft) NW 315 0 min 11,6 C 8,9 km/h (2 Bft)
28.05.2016 16:35 17,1 C 18,1 C 71 % 1014,3 hPa 0,0 mm 5,4 km/h (1 Bft) W-NW 292 0 min 11,8 C 0,0 km/h (0 Bft)
28.05.2016 16:40 17,4 C 20,8 C 72 % 1014,3 hPa 0,0 mm 2,1 km/h (1 Bft) SW 225 5 min 12,3 C 0,0 km/h (0 Bft)
28.05.2016 16:45 17,4 C 20,9 C 71 % 1014,3 hPa 0,0 mm 0,3 km/h (0 Bft) N 360 5 min 12,1 C 0,0 km/h (0 Bft)
28.05.2016 16:50 17,5 C 19,9 C 71 % 1014,2 hPa 0,0 mm 0,6 km/h (0 Bft) NW 315 0 min 12,2 C 0,0 km/h (0 Bft)
28.05.2016 16:55 17,8 C 20,1 C 71 % 1014,2 hPa 0,0 mm 0,6 km/h (0 Bft) W 270 0 min 12,5 C 0,0 km/h (0 Bft)
28.05.2016 17:00 17,9 C 20,1 C 71 % 1014,2 hPa 0,0 mm 1,2 km/h (1 Bft) W-SW 247 0 min 12,6 C 0,0 km/h (0 Bft)
28.05.2016 17:05 17,9 C 20,0 C 70 % 1014,2 hPa 0,0 mm 1,2 km/h (1 Bft) W 270 0 min 12,3 C 0,0 km/h (0 Bft)
28.05.2016 17:10 18,0 C 20,3 C 70 % 1013,7 hPa 0,0 mm 0,0 km/h (0 Bft) NW 315 0 min 12,4 C 0,0 km/h (0 Bft)
28.05.2016 17:15 18,0 C 20,3 C 70 % 1013,7 hPa 0,0 mm 0,0 km/h (0 Bft) NO 45 0 min 12,4 C 0,0 km/h (0 Bft)
28.05.2016 17:20 18,3 C 20,3 C 71 % 1013,7 hPa 0,0 mm 3,0 km/h (1 Bft) NW 315 0 min 12,9 C 8,9 km/h (2 Bft)
28.05.2016 17:25 18,4 C 20,3 C 70 % 1013,7 hPa 0,0 mm 4,2 km/h (1 Bft) N-NW 337 0 min 12,8 C 0,0 km/h (0 Bft)
28.05.2016 17:30 18,4 C 20,2 C 70 % 1013,6 hPa 0,0 mm 3,3 km/h (1 Bft) NO 45 0 min 12,8 C 0,0 km/h (0 Bft)
28.05.2016 17:35 18,5 C 20,3 C 70 % 1013,6 hPa 0,0 mm 2,4 km/h (1 Bft) W-SW 247 0 min 12,9 C 0,0 km/h (0 Bft)
28.05.2016 17:40 18,6 C 20,3 C 70 % 1013,6 hPa 0,0 mm 1,5 km/h (1 Bft) NW 315 0 min 13,0 C 0,0 km/h (0 Bft)
28.05.2016 17:45 18,7 C 20,5 C 70 % 1013,6 hPa 0,0 mm 1,8 km/h (1 Bft) N-NW 337 0 min 13,1 C 4,5 km/h (1 Bft)
28.05.2016 17:50 18,8 C 20,4 C 69 % 1013,6 hPa 0,0 mm 3,0 km/h (1 Bft) N-NO 22 0 min 13,0 C 0,0 km/h (0 Bft)
28.05.2016 17:55 18,9 C 20,4 C 69 % 1013,6 hPa 0,0 mm 3,6 km/h (1 Bft) NW 315 0 min 13,1 C 4,2 km/h (1 Bft)
28.05.2016 18:00 19,0 C 20,4 C 70 % 1013,6 hPa 0,0 mm 4,5 km/h (1 Bft) W-NW 292 0 min 13,4 C 0,0 km/h (0 Bft)
28.05.2016 18:05 19,0 C 20,4 C 70 % 1013,6 hPa 0,0 mm 5,1 km/h (1 Bft) NO 45 0 min 13,4 C 3,0 km/h (1 Bft)
28.05.2016 18:10 19,0 C 20,3 C 69 % 1013,2 hPa 0,0 mm 4,2 km/h (1 Bft) NW 315 0 min 13,2 C 6,9 km/h (2 Bft)
28.05.2016 18:15 19,1 C 20,4 C 69 % 1013,2 hPa 0,0 mm 4,5 km/h (1 Bft) NW 315 0 min 13,3 C 3,6 km/h (1 Bft)
28.05.2016 18:18 19,3 C 20,4 C 69 % 1013,2 hPa 0,0 mm 5,4 km/h (1 Bft) NO 45 0 min 13,5 C 10,7 km/h (2 Bft)
28.05.2016 18:20 19,3 C 20,4 C 69 % 1013,2 hPa 0,0 mm 5,4 km/h (1 Bft) NO 45 0 min 13,5 C 10,7 km/h (2 Bft)
28.05.2016 18:25 19,4 C 20,5 C 69 % 1013,2 hPa 0,0 mm 6,0 km/h (2 Bft) O-NO 67 0 min 13,6 C 9,8 km/h (2 Bft)
28.05.2016 18:30 19,3 C 20,4 C 69 % 1013,1 hPa 0,0 mm 7,5 km/h (2 Bft) N-NO 22 0 min 13,5 C 11,3 km/h (2 Bft)
28.05.2016 18:35 19,3 C 20,3 C 68 % 1013,1 hPa 0,0 mm 8,0 km/h (2 Bft) O-NO 67 0 min 13,2 C 11,6 km/h (2 Bft)
28.05.2016 18:40 19,3 C 20,3 C 67 % 1013,1 hPa 0,0 mm 7,5 km/h (2 Bft) NO 45 0 min 13,0 C 12,8 km/h (3 Bft)
28.05.2016 18:45 19,4 C 20,3 C 67 % 1013,1 hPa 0,0 mm 7,5 km/h (2 Bft) NO 45 0 min 13,1 C 7,7 km/h (2 Bft)
28.05.2016 18:50 19,5 C 21,4 C 68 % 1012,8 hPa 0,0 mm 7,7 km/h (2 Bft) N-NW 337 0 min 13,4 C 4,8 km/h (1 Bft)
28.05.2016 18:55 19,5 C 22,2 C 68 % 1012,8 hPa 0,0 mm 7,2 km/h (2 Bft) O-NO 67 5 min 13,4 C 12,8 km/h (3 Bft)
28.05.2016 19:00 19,5 C 22,9 C 69 % 1012,8 hPa 0,0 mm 7,5 km/h (2 Bft) N-NO 22 5 min 13,7 C 12,8 km/h (3 Bft)
28.05.2016 19:05 19,5 C 23,1 C 69 % 1012,8 hPa 0,0 mm 7,7 km/h (2 Bft) N-NO 22 5 min 13,7 C 15,5 km/h (3 Bft)
28.05.2016 19:10 19,5 C 23,0 C 69 % 1012,8 hPa 0,0 mm 8,3 km/h (2 Bft) N-NO 22 5 min 13,7 C 4,5 km/h (1 Bft)
28.05.2016 19:15 19,5 C 22,9 C 68 % 1012,8 hPa 0,0 mm 9,2 km/h (2 Bft) O-NO 67 5 min 13,4 C 14,6 km/h (3 Bft)
28.05.2016 19:20 19,6 C 23,0 C 69 % 1012,8 hPa 0,0 mm 7,2 km/h (2 Bft) N-NO 22 5 min 13,8 C 7,7 km/h (2 Bft)
28.05.2016 19:25 19,6 C 22,9 C 69 % 1012,8 hPa 0,0 mm 7,5 km/h (2 Bft) N-NO 22 5 min 13,8 C 10,7 km/h (2 Bft)
28.05.2016 19:30 19,5 C 22,6 C 69 % 1012,8 hPa 0,0 mm 8,9 km/h (2 Bft) NO 45 5 min 13,7 C 12,2 km/h (2 Bft)
28.05.2016 19:35 19,4 C 22,4 C 70 % 1012,8 hPa 0,0 mm 8,3 km/h (2 Bft) N-NW 337 5 min 13,8 C 0,0 km/h (0 Bft)
28.05.2016 19:40 19,5 C 22,3 C 69 % 1012,8 hPa 0,0 mm 7,5 km/h (2 Bft) S-SW 202 5 min 13,7 C 5,7 km/h (1 Bft)
28.05.2016 19:45 19,5 C 22,2 C 70 % 1012,8 hPa 0,0 mm 6,9 km/h (2 Bft) N-NO 22 5 min 13,9 C 11,9 km/h (2 Bft)
28.05.2016 19:50 19,5 C 21,8 C 69 % 1012,6 hPa 0,0 mm 7,7 km/h (2 Bft) N-NO 22 5 min 13,7 C 7,2 km/h (2 Bft)
28.05.2016 19:55 19,5 C 21,8 C 69 % 1012,6 hPa 0,0 mm 7,7 km/h (2 Bft) NO 45 5 min 13,7 C 6,0 km/h (2 Bft)
28.05.2016 20:00 19,4 C 21,6 C 70 % 1012,6 hPa 0,0 mm 4,5 km/h (1 Bft) O-NO 67 5 min 13,8 C 4,8 km/h (1 Bft)
28.05.2016 20:05 19,3 C 21,5 C 70 % 1012,6 hPa 0,0 mm 3,3 km/h (1 Bft) N-NO 22 5 min 13,7 C 3,3 km/h (1 Bft)
28.05.2016 20:10 19,2 C 21,4 C 70 % 1012,4 hPa 0,0 mm 2,1 km/h (1 Bft) O 90 5 min 13,6 C 0,0 km/h (0 Bft)
28.05.2016 20:15 19,0 C 21,3 C 70 % 1012,4 hPa 0,0 mm 0,9 km/h (0 Bft) S-SW 202 5 min 13,4 C 0,0 km/h (0 Bft)
28.05.2016 20:20 18,7 C 21,2 C 71 % 1012,4 hPa 0,0 mm 0,0 km/h (0 Bft) O-SO 112 5 min 13,3 C 0,0 km/h (0 Bft)
28.05.2016 20:25 18,6 C 21,0 C 71 % 1012,4 hPa 0,0 mm 0,0 km/h (0 Bft) N-NW 337 5 min 13,2 C 0,0 km/h (0 Bft)
28.05.2016 20:30 18,2 C 20,4 C 71 % 1012,1 hPa 0,0 mm 0,0 km/h (0 Bft) N-NO 22 0 min 12,9 C 0,0 km/h (0 Bft)
28.05.2016 20:35 17,9 C 19,6 C 72 % 1012,1 hPa 0,0 mm 0,0 km/h (0 Bft) O-SO 112 0 min 12,8 C 0,0 km/h (0 Bft)
28.05.2016 20:40 17,7 C 18,7 C 73 % 1012,1 hPa 0,0 mm 0,0 km/h (0 Bft) S-SO 157 0 min 12,8 C 0,0 km/h (0 Bft)
28.05.2016 20:45 17,4 C 18,1 C 74 % 1012,1 hPa 0,0 mm 0,0 km/h (0 Bft) O-NO 67 0 min 12,7 C 0,0 km/h (0 Bft)
28.05.2016 20:50 17,1 C 17,3 C 75 % 1012,1 hPa 0,0 mm 0,0 km/h (0 Bft) O-SO 112 0 min 12,6 C 0,0 km/h (0 Bft)
28.05.2016 20:55 16,9 C 16,9 C 76 % 1012,1 hPa 0,0 mm 0,0 km/h (0 Bft) SO 135 0 min 12,6 C 0,0 km/h (0 Bft)
28.05.2016 21:00 16,8 C 16,4 C 76 % 1012,1 hPa 0,0 mm 0,0 km/h (0 Bft) O-SO 112 0 min 12,5 C 0,0 km/h (0 Bft)
28.05.2016 21:05 16,6 C 16,2 C 76 % 1012,1 hPa 0,0 mm 0,0 km/h (0 Bft) O-NO 67 0 min 12,3 C 0,0 km/h (0 Bft)
28.05.2016 21:10 16,3 C 15,8 C 77 % 1011,8 hPa 0,0 mm 0,0 km/h (0 Bft) NO 45 0 min 12,3 C 0,0 km/h (0 Bft)
28.05.2016 21:15 16,1 C 15,5 C 77 % 1011,8 hPa 0,0 mm 0,0 km/h (0 Bft) N-NO 22 0 min 12,1 C 0,0 km/h (0 Bft)
28.05.2016 21:18 15,9 C 15,3 C 78 % 1011,8 hPa 0,0 mm 0,0 km/h (0 Bft) NO 45 0 min 12,1 C 0,0 km/h (0 Bft)
28.05.2016 21:21 15,9 C 15,3 C 78 % 1011,8 hPa 0,0 mm 0,0 km/h (0 Bft) NO 45 0 min 12,1 C 0,0 km/h (0 Bft)
28.05.2016 21:25 15,8 C 15,0 C 78 % 1011,8 hPa 0,0 mm 0,0 km/h (0 Bft) S 180 0 min 12,0 C 0,0 km/h (0 Bft)
28.05.2016 21:30 15,7 C 15,1 C 79 % 1011,9 hPa 0,0 mm 0,0 km/h (0 Bft) S-SO 157 0 min 12,1 C 0,0 km/h (0 Bft)
28.05.2016 21:35 15,7 C 15,1 C 79 % 1011,9 hPa 0,0 mm 0,0 km/h (0 Bft) O 90 0 min 12,1 C 0,0 km/h (0 Bft)
28.05.2016 21:40 15,6 C 15,0 C 80 % 1011,9 hPa 0,0 mm 0,0 km/h (0 Bft) S 180 0 min 12,2 C 0,0 km/h (0 Bft)
28.05.2016 21:45 15,5 C 15,0 C 80 % 1011,9 hPa 0,0 mm 0,0 km/h (0 Bft) SO 135 0 min 12,1 C 0,0 km/h (0 Bft)
28.05.2016 21:50 15,2 C 14,7 C 80 % 1011,8 hPa 0,0 mm 0,0 km/h (0 Bft) NW 315 0 min 11,8 C 0,0 km/h (0 Bft)
28.05.2016 21:55 15,1 C 14,3 C 79 % 1011,8 hPa 0,0 mm 0,0 km/h (0 Bft) NW 315 0 min 11,5 C 0,0 km/h (0 Bft)
28.05.2016 22:00 14,8 C 14,2 C 80 % 1011,8 hPa 0,0 mm 0,0 km/h (0 Bft) NO 45 0 min 11,4 C 0,0 km/h (0 Bft)
28.05.2016 22:05 14,7 C 14,1 C 80 % 1011,8 hPa 0,0 mm 0,0 km/h (0 Bft) SO 135 0 min 11,3 C 0,0 km/h (0 Bft)
28.05.2016 22:10 14,5 C 14,1 C 81 % 1011,7 hPa 0,0 mm 0,0 km/h (0 Bft) W-SW 247 0 min 11,3 C 0,0 km/h (0 Bft)
28.05.2016 22:15 14,4 C 13,9 C 81 % 1011,7 hPa 0,0 mm 0,0 km/h (0 Bft) S-SW 202 0 min 11,2 C 0,0 km/h (0 Bft)
28.05.2016 22:20 14,2 C 13,8 C 81 % 1011,7 hPa 0,0 mm 0,0 km/h (0 Bft) SO 135 0 min 11,0 C 0,0 km/h (0 Bft)
28.05.2016 22:25 14,1 C 13,7 C 81 % 1011,7 hPa 0,0 mm 0,0 km/h (0 Bft) N-NW 337 0 min 10,9 C 0,0 km/h (0 Bft)
28.05.2016 22:30 13,9 C 13,4 C 82 % 1011,4 hPa 0,0 mm 0,0 km/h (0 Bft) O 90 0 min 10,9 C 0,0 km/h (0 Bft)
28.05.2016 22:35 14,0 C 13,6 C 82 % 1011,4 hPa 0,0 mm 0,0 km/h (0 Bft) S-SO 157 0 min 11,0 C 0,0 km/h (0 Bft)
28.05.2016 22:40 13,9 C 13,6 C 83 % 1011,4 hPa 0,0 mm 0,0 km/h (0 Bft) S-SO 157 0 min 11,1 C 0,0 km/h (0 Bft)
28.05.2016 22:45 13,8 C 13,6 C 83 % 1011,4 hPa 0,0 mm 0,0 km/h (0 Bft) SO 135 0 min 11,0 C 0,0 km/h (0 Bft)
28.05.2016 22:50 13,7 C 13,4 C 83 % 1011,4 hPa 0,0 mm 0,0 km/h (0 Bft) N-NO 22 0 min 10,9 C 0,0 km/h (0 Bft)
28.05.2016 22:55 13,6 C 13,3 C 83 % 1011,4 hPa 0,0 mm 0,0 km/h (0 Bft) N-NO 22 0 min 10,8 C 0,0 km/h (0 Bft)
28.05.2016 23:00 13,3 C 13,0 C 83 % 1011,4 hPa 0,0 mm 0,0 km/h (0 Bft) W-NW 292 0 min 10,5 C 0,0 km/h (0 Bft)
28.05.2016 23:05 13,2 C 12,7 C 83 % 1011,4 hPa 0,0 mm 0,0 km/h (0 Bft) N 360 0 min 10,4 C 0,0 km/h (0 Bft)
28.05.2016 23:10 13,2 C 12,8 C 83 % 1011,2 hPa 0,0 mm 0,0 km/h (0 Bft) NO 45 0 min 10,4 C 0,0 km/h (0 Bft)
28.05.2016 23:15 13,3 C 12,9 C 83 % 1011,2 hPa 0,0 mm 0,0 km/h (0 Bft) O 90 0 min 10,5 C 0,0 km/h (0 Bft)
28.05.2016 23:20 13,3 C 13,0 C 83 % 1011,2 hPa 0,0 mm 0,0 km/h (0 Bft) NW 315 0 min 10,5 C 0,0 km/h (0 Bft)
28.05.2016 23:25 13,3 C 13,0 C 83 % 1011,2 hPa 0,0 mm 0,0 km/h (0 Bft) SW 225 0 min 10,5 C 0,0 km/h (0 Bft)
28.05.2016 23:30 13,7 C 13,2 C 84 % 1011,0 hPa 0,0 mm 0,0 km/h (0 Bft) W 270 0 min 11,0 C 0,0 km/h (0 Bft)
28.05.2016 23:35 13,5 C 13,0 C 84 % 1011,0 hPa 0,0 mm 0,0 km/h (0 Bft) W 270 0 min 10,8 C 0,0 km/h (0 Bft)
28.05.2016 23:40 13,2 C 12,8 C 84 % 1011,0 hPa 0,0 mm 0,0 km/h (0 Bft) N-NO 22 0 min 10,6 C 0,0 km/h (0 Bft)
28.05.2016 23:45 13,0 C 12,7 C 84 % 1011,0 hPa 0,0 mm 0,0 km/h (0 Bft) S-SW 202 0 min 10,4 C 0,0 km/h (0 Bft)
28.05.2016 23:50 13,0 C 12,7 C 84 % 1010,6 hPa 0,0 mm 0,0 km/h (0 Bft) NO 45 0 min 10,4 C 0,0 km/h (0 Bft)
28.05.2016 23:55 12,9 C 12,7 C 85 % 1010,6 hPa 0,0 mm 0,0 km/h (0 Bft) N-NO 22 0 min 10,4 C 0,0 km/h (0 Bft)
_ Min-Zeit 05:45 05:45 12:15 23:55 - 23:55 - - - 00:20 23:55
Minimum _ 12,8 C 12,6 C 52 % 1010,6 hPa - 0,0 km/h (0 Bft) - - - 10,0 C 0,0 km/h (0 Bft)
_ Max-Zeit 12:05 12:05 09:05 11:05 14:15 15:50 - - 20:25 14:45 06:20
Maximum _ 24,0 C 29,4 C 86 % 1016,7 hPa 0,7 mm 15,5 km/h
NW (3 Bft)
- - 5 min 15,2 C 31,0 km/h
W (5 Bft)
Durchschnitt _ 16,7 C 18,2 C 75 % 1014,6 hPa #4,1 mm 2,9 km/h (1 Bft) N-NO - #6:03 h 12,1 C 3,8 km/h (1 Bft)